This demonstration page uses our WeatherBlox Daily Observations layout. Learn more.

Hourly Observations for January 22, 2021

Temp ( °F °C ) Dew Point ( °F °C ) Humidity (%) Winds ( mph kmh ) Pressure ( in mb ) Visibility ( mi km ) Precip ( " mm )
12:15 am 00:15 Clear 34 1 21 -6 60 60 Calm 29.74 1007 10 16.0934 0 0
12:35 am 00:35 Clear 36 2 21 -6 56 56 S 3 6 29.74 1007 10 16.0934 0 0
12:55 am 00:55 Clear 36 2 23 -5 60 60 W 3 6 29.74 1007 10 16.0934 0 0
1:15 am 01:15 Clear 39 4 27 -3 61 61 W 9 15 29.74 1007 10 16.0934 0 0
1:35 am 01:35 Clear 41 5 27 -3 57 57 WNW 8 13 29.73 1007 10 16.0934 0 0
1:55 am 01:55 Clear 41 5 27 -3 57 57 WNW 7 11 29.73 1007 10 16.0934 0 0
2:15 am 02:15 Clear 41 5 27 -3 57 57 WNW 8 13 29.74 1007 10 16.0934 0 0
2:35 am 02:35 Clear 39 4 27 -3 61 61 W 8 13 29.76 1008 10 16.0934 0 0
2:55 am 02:55 Clear 41 5 27 -3 57 57 WNW 9 15 29.75 1008 10 16.0934 0 0
3:15 am 03:15 Clear 41 5 27 -3 57 57 WNW 10 17 29.75 1008 10 16.0934 0 0
3:35 am 03:35 Clear 41 5 27 -3 57 57 WNW 8 13 29.74 1007 10 16.0934 0 0
3:55 am 03:55 Clear 41 5 27 -3 57 57 WNW 8 13 29.74 1007 10 16.0934 0 0
4:15 am 04:15 Clear 41 5 27 -3 57 57 WNW 10 17 29.74 1007 10 16.0934 0 0
4:35 am 04:35 Clear 41 5 27 -3 57 57 WNW 8 13 29.74 1007 10 16.0934 0 0
4:55 am 04:55 Clear 41 5 27 -3 57 57 WNW 12 19 29.74 1007 10 16.0934 0 0
5:15 am 05:15 Clear 41 5 27 -3 57 57 WNW 16 26 29.74 1007 10 16.0934 0 0
5:35 am 05:35 Clear 41 5 27 -3 57 57 WNW 13 20 29.75 1008 10 16.0934 0 0
5:55 am 05:55 Clear 41 5 27 -3 57 57 W 9 15 29.76 1008 10 16.0934 0 0
6:15 am 06:15 Clear 37 3 27 -3 65 65 WNW 9 15 29.77 1008 10 16.0934 0 0
6:35 am 06:35 Clear 37 3 27 -3 65 65 WNW 8 13 29.78 1008 10 16.0934 0 0
6:55 am 06:55 Partly Cloudy 36 2 27 -3 70 70 NW 8 13 29.78 1008 10 16.0934 0 0
7:15 am 07:15 Partly Cloudy 36 2 27 -3 70 70 NW 8 13 29.79 1009 10 16.0934 0 0
7:35 am 07:35 Mostly Cloudy 36 2 27 -3 70 70 WNW 6 9 29.8 1009 10 16.0934 0 0
7:55 am 07:55 Partly Cloudy 36 2 27 -3 70 70 WNW 7 11 29.81 1009 10 16.0934 0 0
8:15 am 08:15 Mostly Cloudy 39 4 27 -3 61 61 WNW 8 13 29.81 1009 10 16.0934 0 0
8:35 am 08:35 Partly Cloudy 41 5 27 -3 57 57 WNW 12 19 29.8 1009 10 16.0934 0 0
8:55 am 08:55 Mostly Cloudy 43 6 27 -3 53 53 NW 10 17 29.81 1010 10 16.0934 0 0
9:15 am 09:15 Cloudy 43 6 27 -3 53 53 NW 13 20 29.82 1010 10 16.0934 0 0
9:35 am 09:35 Mostly Cloudy 43 6 27 -3 53 53 NW 14 22 29.83 1010 10 16.0934 0 0
9:55 am 09:55 Cloudy 43 6 27 -3 53 53 NW 13 20 29.84 1011 10 16.0934 0 0
10:15 am 10:15 Mostly Cloudy 45 7 27 -3 49 49 WNW 15 24 29.84 1011 10 16.0934 0 0
10:35 am 10:35 Partly Cloudy 45 7 27 -3 49 49 NW 15 24 29.84 1011 10 16.0934 0 0
10:55 am 10:55 Partly Cloudy 45 7 28 -2 53 53 NW 12 19 29.85 1011 10 16.0934 0 0
11:15 am 11:15 Partly Cloudy 45 7 27 -3 49 49 NW 17 28 29.84 1011 10 16.0934 0 0
11:35 am 11:35 Sunny 46 8 28 -2 50 50 WNW 15 24 29.85 1011 10 16.0934 0 0
11:55 am 11:55 Partly Cloudy 46 8 27 -3 46 46 NW 12 19 29.84 1010 10 16.0934 0 0
12:15 pm 12:15 Partly Cloudy 45 7 27 -3 49 49 NW 20 31 29.83 1010 10 16.0934 0 0
12:35 pm 12:35 Sunny 46 8 25 -4 43 43 NW 22 35 29.83 1010 10 16.0934 0 0
12:55 pm 12:55 Sunny 45 7 23 -5 42 42 NW 21 33 29.83 1010 10 16.0934 0 0
1:15 pm 13:15 Sunny 45 7 21 -6 39 39 NNW 18 30 29.84 1011 10 16.0934 0 0
1:35 pm 13:35 Sunny 46 8 23 -5 40 40 NNW 20 31 29.84 1010 10 16.0934 0 0
1:55 pm 13:55 Partly Cloudy 46 8 23 -5 40 40 NNW 13 20 29.85 1011 10 16.0934 0 0
2:15 pm 14:15 Sunny 46 8 23 -5 40 40 NW 14 22 29.85 1011 10 16.0934 0 0
2:35 pm 14:35 Partly Cloudy 45 7 23 -5 42 42 NNW 15 24 29.86 1011 10 16.0934 0 0
2:55 pm 14:55 Partly Cloudy 45 7 23 -5 42 42 NNW 21 33 29.87 1012 10 16.0934 0 0
3:15 pm 15:15 Sunny 45 7 23 -5 42 42 NW 18 30 29.88 1012 10 16.0934 0 0
3:35 pm 15:35 Sunny 45 7 23 -5 42 42 NNW 17 28 29.88 1012 10 16.0934 0 0
3:55 pm 15:55 Sunny 45 7 23 -5 42 42 NW 16 26 29.89 1012 10 16.0934 0 0
4:15 pm 16:15 Sunny 43 6 21 -6 42 42 WNW 17 28 29.9 1013 10 16.0934 0 0
4:35 pm 16:35 Sunny 43 6 21 -6 42 42 WNW 15 24 29.91 1013 10 16.0934 0 0
4:55 pm 16:55 Sunny 41 5 21 -6 45 45 NW 14 22 29.92 1013 10 16.0934 0 0
5:15 pm 17:15 Sunny 41 5 21 -6 45 45 NW 10 17 29.93 1014 10 16.0934 0 0
5:35 pm 17:35 Clear 39 4 21 -6 48 48 NW 12 19 29.95 1014 10 16.0934 0 0
5:55 pm 17:55 Clear 37 3 21 -6 52 52 NNW 10 17 29.97 1015 10 16.0934 0 0
6:15 pm 18:15 Partly Cloudy 37 3 21 -6 52 52 NW 9 15 29.97 1015 10 16.0934 0 0
6:35 pm 18:35 Partly Cloudy 37 3 21 -6 52 52 NW 14 22 29.98 1015 10 16.0934 0 0
6:55 pm 18:55 Cloudy 37 3 21 -6 52 52 NW 14 22 29.98 1015 10 16.0934 0 0
7:15 pm 19:15 Cloudy 37 3 21 -6 52 52 WNW 12 19 29.99 1015 10 16.0934 0 0
7:35 pm 19:35 Cloudy 37 3 21 -6 52 52 NW 10 17 29.99 1015 10 16.0934 0 0
7:55 pm 19:55 Cloudy 37 3 21 -6 52 52 WNW 7 11 30 1016 10 16.0934 0 0
8:15 pm 20:15 Cloudy 36 2 21 -6 56 56 WNW 6 9 30 1016 10 16.0934 0 0
8:35 pm 20:35 Mostly Cloudy 36 2 21 -6 56 56 NW 7 11 29.99 1016 10 16.0934 0 0
8:55 pm 20:55 Mostly Cloudy 37 3 19 -7 48 48 NW 14 22 30 1016 10 16.0934 0 0
9:15 pm 21:15 Cloudy 37 3 21 -6 52 52 NNW 8 13 30 1016 10 16.0934 0 0
9:35 pm 21:35 Cloudy 37 3 21 -6 52 52 NW 14 22 30 1016 10 16.0934 0 0
9:55 pm 21:55 Cloudy 37 3 21 -6 52 52 NNW 12 19 30 1016 10 16.0934 0 0
10:15 pm 22:15 Cloudy 36 2 21 -6 56 56 NW 14 22 30 1016 10 16.0934 0 0
10:35 pm 22:35 Cloudy 36 2 21 -6 56 56 NNW 15 24 30.01 1016 10 16.0934 0 0
10:55 pm 22:55 Cloudy 37 3 21 -6 52 52 NNW 12 19 30.02 1016 10 16.0934 0 0
11:15 pm 23:15 Cloudy 37 3 21 -6 52 52 NW 9 15 30.02 1016 10 16.0934 0 0
11:35 pm 23:35 Cloudy 36 2 21 -6 56 56 NNW 10 17 30.03 1017 10 16.0934 0 0
11:55 pm 23:55 Cloudy 36 2 21 -6 56 56 NW 12 19 30.03 1017 10 16.0934 0 0

Powered by AerisWeather